Timeline UpdatesTrip UpdatesNews PostsPvt Posts♥♥Travel TipsAdmin PostsConv PostsFollowed PostsChat RequestsBlog PostsPNR Posts

Disclaimer
Search
 
 
Thu Oct 30, 2014 22:13:23 ISTHomeTrainsΣChainsAtlasPNRForumGalleryNewsFAQTripsMembersLoginFeedback
No Recent News for this Train
Other Trains in the News **new
Latest...
.
Thu Jan 03, 2013 (07:52PM)
⇐ Return Journey: Train# 12137

12138/Punjab Mail

Time-Table HAS CHANGED.
Sep 18 2014 (9:28PM)
Change Departure Station:
Change Arrival Station:
Post a Train Travel TipPost a Train Travel Tip **new
Post a Comment/Question/Picture/VideoPost a Comment/Question/Picture/Video
Inaugural Run
Sat Jun 01, 1912
Pantry/Catering
✓ Pantry Car Avbl
✓ Catering Avbl
RSA - Rake Sharing
No RSA.
Rake/Coach Composition
Loco-SLR(Ladies+ RMS)-GEN (Military)-HA1-A1-AB1-B1-B2-B3-B4-B5-S1-PC-S2-S3-S4-S5-S6-S7-S8-S9-S10-GEN-GEN-SLR
Loco
FZR-NDLS=> BGKT WDP-4/4B; NDLS-IGP=> GZB WAP-4/7; IGP-CSTM=> KYN WCAM-3.
News    PNR    Forum    Time-Table    Availability    Fare Chart    Map    Arr/Dep History    Trips    Gallery    ΣChains    X/O    Timeline    
Travel Time: 1h 36m    3 halts    Distance: 71 km    Avg Speed: 44 km/hr
Type: SuperFast
Zone: CR/Central
Departs @ 03:14 (Avg 8m late)
Platform# ???
SMTWTFS
Rohtak Junction/ROK 
Arrives @ 04:50 (Avg 12m late)
Platform# 3
SMTWTFS
New Delhi/NDLS 

3 halts. 16 intermediate Stations between Rohtak Junction and New Delhi

Show ALL intermediate Stations  Show Old Time-Table

#TrkCodeStation NameX/OArrivesAvgDepartsAvgHaltPFDay#KmSpeedElevZoneAddress
1|--|FZRFirozpur Cantt. Junction (5)  -21:40+011-316.477200mNRFirozpur Cantt 152001, Punjab
2|--|FDKFaridkot (3)  22:05+722:07+72m11-284.155202mNRFaridkot, Punjab
3|--|KKPKot Kapura Junction (3)  22:21+722:23+72m11-271.4650mNRKotkapura, Punjab
4|--|GJUTGangsar Jaitu (3)X  22:38+722:40+72m11-255.161207mNRJaitu, Punjab
5|--|GNAGoneana Bhai Jagta (3)  22:54+822:56+82m11-240.925206mNRGoniana, Punjab
6|--|BTIBathinda Junction (6)X  23:25-323:35+010m71-228.679208mNRBathinda, Punjab
7!==!MAURMaur  00:02+900:04+92m12-193.175220mNRMaur Mandi, Punjab
8!==!MSZMansa  00:19+1000:21+102m12-174.469222mNRMansa, Punjab
9!==!BLZBudhlada  00:35+1100:37+112m12-158.371223mNRBudhlada, Punjab
10!==!BRZBareta  00:50+1100:52+112m12-142.953223mNRBareta, Punjab
11!==!JHLJakhal JunctionX  01:08+901:10+102m--2-128.752225mNRJakhal, Haryana
12|==|TUNTohana (2)X  01:24+1001:26+102m12-116.480232mNRTohana, Haryana
13|==|NRWNarwana Junction (4)  01:45+1201:47+122m--2-91.062235mNRWay to Narwana, Haryana
14|==|JINDJind Junction (3)X  02:21 02:20+1002:23+102 3m--2-57.170222mNRJind 126102, Haryana
15|==|ROKRohtak Junction (3)»  03:12+803:14+82m--20.081220mNRRohtak, Haryana
16/==/BGZBahadurgarh  03:44+1503:46+152m--240.348220mNRBahadurgarh, Haryana
17/==/SSBShakur Basti  04:11+1104:13+122m--260.235216mNRPitampura, Delhi NCT
18/==/DKZDelhi KishanGanj (2)  04:25+1604:27+162m1267.210220mNRSarai Rohilla, Delhi NCT
19/==/NDLSNew Delhi (16)•X04:50+1205:15+1225m3271.158215mNRNew Delhi, Delhi NCT
20/==/FDBFaridabad (4)  05:44+1505:46+152m3299.261206mNRold Faridabad, Haryana
21/==/KSVKosi Kalan (3)O  06:57+1406:59+182m12171.065189mNCRKosi Kalan, Uttar Pradesh
22/==/MTJMathura Junction (10)X  07:37+1407:40+153m12212.473179mNCRMathura, Uttar Pradesh
23/==/RKMRaja Ki Mandi (4)X  08:21+1308:23+142m22262.19170mNCRAgra, Uttar Pradesh
24/==/AGCAgra Cantt. (6)X  08:50+508:55+55m12266.190174mNCRAgra, Uttar Pradesh
25/==/DHODholpur Junction (3)X  09:30+1709:32+172m22318.770177mNCRDholpur, Rajasthan
26/==/MRAMorena (3)X  09:55+1909:57+202m12345.575176mNCRMorena, Madhya Pradesh
27/==/GWLGwalior Junction (4)  10:28+2510:33+305m12384.163214mNCRGwalior, Madhya Pradesh
28/==/DBADabra (3)X  11:13+3311:15+332m12426.467 NCRDabra(District-Gwalior), Madhya Pradesh
29/==/DAADatia (2)O  11:42+3511:44+362m12456.837264mNCRDatia, Madhya Pradesh
30/==/JHSJhansi Junction (7)X  12:25+2312:33 12:35+258 10m32481.867259mNCRJhansi, Uttar Pradesh
31/==/BABBabina (3)X  12:58+3013:00+312m12507.386285mNCRBabina, Uttar Pradesh
32/==/LARLalitpur (3)  13:45+3213:47+332m12572.165373mNCRLalitpur, Uttar Pradesh
33/==/BINABina Junction (5)  14:45+3914:50+395m22635.083414mWCRJn Pt - KATNI/GUNA/ BPL/JHS, Madhya Pradesh
34/==/BAQGanj Basoda (4)  15:22 15:23+4415:24 15:25+442m22680.887 WCRVidisha, Madhya Pradesh
35/==/BHSVidisha (3)X  15:52+4815:54+482m22720.157 WCRVidisha, Madhya Pradesh
36/==/BPLBhopal Junction (6)X  16:50+4216:55+435m12773.638497mWCRBhopal, Madhya Pradesh
37/==/HBJBhopal HabibGanj (5)  17:05+4717:07+472m42779.970496mWCRHabibGanj, Madhya Pradesh
38/==/HBDHoshangabad (2)X  18:05+1:0218:07+1:032m22847.339308mWCRHoshangabad, Madhya Pradesh
39/==/ETItarsi Junction (7)  18:35+5818:40+1:045m42865.384329mWCRItarsi 461111, Madhya Pradesh
40/==/BPFBanapura (2)X  19:04+1:0919:06+1:092m12898.882314mWCRBanapura, Madhya Pradesh
41/==/HDHarda (3)  19:37+1:0819:39+1:082m12941.276289mWCRHarda, Madhya Pradesh
42/==/KKNKhirkiya (2)  20:04+1:0420:06+1:042m12972.749281mWCRSH 15, Madhya Pradesh
43/==/KNWKhandwa Junction (5)X  21:40+4121:45+415m221048.886310mCRKhandwa, Madhya Pradesh
44/==/BAUBurhanpur (2)  22:33+4722:35+472m121117.765269mCRBurhanpur, Madhya Pradesh
45/==/BSLBhusaval Junction (8)X  23:25+4323:35+4610m321172.160208mCRBhusaval 425201, Maharashtra
46/==/JLJalgaon Junction (4)  23:59+5000:01+512m221196.396213mCRJalgaon 425001, Maharashtra
47/==/CSNChalisgaon Junction (3)X  00:59+5701:01+572m131288.883352mCRChalisgaon 424101, Maharashtra
48/==/MMRManmad Junction (6)XO  01:50+1:0001:55+1:085m331356.387580mCRManmad 423104, Maharashtra
49/==/NKNasik Road (3)XO  02:45+1:1502:50+1:135m331429.143563mCRNashik 422101, Maharashtra
50/==/DVLDevlali (3)X  02:58+1:1303:00+1:132m231434.832561mCRDist. Nashik 422401, Maharashtra
51/==/IGPIgatpuri (4)04:25+3404:30+485m331479.845589mCRIgatpuri 422403, Maharashtra
52/==/KYNKalyan Junction (8)X  06:20+1:2706:25+1:235m531561.67210mCRKalyan 421301, Maharashtra
53/==/DRMumbai Dadar Central (8)  07:10 07:02+1:1307:15 07:05+1:155 3m631606.0177mCRMumbai 400014, Maharashtra
54/==/CSTMMumbai CST (18)  07:35+1:22-1431614.7-10mCRMumbai 400001, Maharashtra
Scroll to Top
Scroll to Bottom